ARIANE 5 DEB (SYLDA), 42743

Orbit data source: Space-Track

ARIANE 5 DEB (SYLDA), 42743 is space debris in HEO originally from a launch on Thu, 01 Jun 2017 UTC launched from the French Guiana (FRGUI). Debris objects in space refer to the collection of defunct objects orbiting the Earth. Examples of debris include non-operational satellites, rocket bodies, and fragments generated from explosions, collisions, or faulty payload assembly.

Loading next visibility...
ARIANE 5 DEB (SYLDA) details
Identifier
42743, 2017-029D
Orbit
HEO
Last TLE update14 hours ago
Origin
Flag of FRArianespace (FR)
ManufacturerADS/Bremen
MissionSpacecraft
Bus & MotorSYLDA 5, Unknown motor
Mass440 kg wet, 440 kg dry
Launch date (UTC)
2017-06-01 (8 years ago)
Launch vehicleUnknown
Launch site
French Guiana (FRGUI)
Object type
Payload
Rocket body
Debris
Shape & HBRCyl, 5.5 m
Radar Cross Section27.391 m², Large (>1 m²)

Expand to show TLE details & history

TLE from 14 hours ago
0 ARIANE 5 DEB (SYLDA)
1 42743U 17029D   24360.97028725  .00048857  00000-0  10480-1 0  9990
2 42743   5.9361 196.8571 6606251 264.7181  22.5834  3.17127547 71018
Epoch: 2024-12-25T23:17Z
Definitive object data (Epoch: 2024-12-25T23:17:12.818Z)
Latitude-0.00001°
Longitude112.69996°
Altitude5,367.503 km
Speed6.892 km/s
True Right ascension13h 07m 50s
True Declination0° 00' 00"
Sunlit
Object was in daylight at TLE epoch
Visualization TLE readout
Latitude3.87031°
Longitude-108.20543°
Altitude11,634.034 km
Speed4.887 km/s
Apparent Right ascension22h 48m 43s
Apparent Declination-7° 16' 43"
Sunlit
Object is in daylight
Visualization observer readout
Local Sidereal Time12:20:58
Azimuth38.498° NE
Elevation-51.381°
Doppler factor1
Orbital elements
Apogee altitude26,128.139 km
Perigee altitude265.033 km
Semi-major axis19,574.723 km
Eccentricity0.6606251
Inclination5.9361°
RAAN196.8571°
Arg. of periapsis264.7181°
True anomaly95.21271°
Mean anomaly22.5834°
Eccentric anomaly52.68814°
Mean motion0.7925 °/min
BSTAR0.01048
Orbital period454.26 mins
Loading maneuver chart data...
Loading historical data...
Loading historical data...
Loading historical data...
Loading historical data...
Loading historical data...
Loading historical data...
Loading historical data...
Other satellites on launch #29 in the year 2017 (2017-06-01 UTC)

ARIANE 5 DEB (SYLDA) Visibility forecast

Observer location: undefined°, undefined

Span
Click to sort rows by Start time (UTC) header in descending order
Start Az.
Max El. time (UTC)
Max El. Az.
Max El.
End time (UTC)
End Az.
386 mins2024-12-26 14:21:21.782Z203.05° SW2024-12-26 18:24:21.782Z140.904° SSE33.213°2024-12-26 20:47:21.782Z120.096° SE
|